Probability
0 0 0 0 0 0 0 0 0 0 0 0 0 0 0 0 0 0 0 0 0 0 0 0 0 0 0 0 0 0 0 0 0 0 0 0 0 0 0 0 0 0 0
0 0 0 0 1 1 0 0 0 0 0 0 0 0 0 0 0 0 0 0 0 0 0 0 0 0 0 0 0 0 0 0 0 0 0 0 0 0 0 0 0 0 0
0 0 0 1 2 2 1 0 0 0 0 0 0 0 0 0 0 0 0 0 0 0 0 0 0 0 0 0 0 0 0 0 0 0 0 0 0 0 0 0 0 0 0
0 0 1 2 3 3 2 1 0 0 0 0 0 0 0 0 0 0 0 0 0 0 0 0 0 0 0 0 0 0 0 0 0 0 0 0 0 0 0 0 0 0 0
0 0 1 2 3 3 2 1 0 0 0 0 0 0 0 0 0 0 0 0 0 0 0 0 0 0 0 0 0 0 0 0 0 0 0 0 0 0 0 0 0 0 0
0 0 1 2 2 2 1 0 0 0 0 0 0 0 0 0 0 0 0 0 0 0 0 0 0 0 0 0 0 0 0 0 0 0 0 0 0 0 0 0 0 0 0
0 0 0 1 1 1 0 0 0 0 0 0 0 0 0 0 0 0 0 0 0 0 0 0 0 0 0 0 0 0 0 0 0 0 0 0 0 0 0 0 0 0 0
0 0 0 0 0 0 0 0 0 0 0 0 0 0 0 0 0 0 0 0 0 0 0 0 0 0 0 0 0 0 0 0 0 0 0 0 0 0 0 0 0 0 0
0 0 0 0 0 0 0 0 0 0 0 0 0 0 0 0 0 0 0 0 0 0 0 0 0 0 0 0 0 0 0 0 0 0 0 0 0 0 0 0 0 0 0
0 0 0 0 0 0 0 0 0 0 0 0 0 0 0 0 0 0 0 0 0 0 0 0 0 0 0 0 0 0 0 0 0 0 0 0 0 0 0 0 0 0 0
0 0 0 0 0 0 0 0 0 0 0 0 0 0 0 0 0 0 0 0 0 0 0 0 0 0 0 0 0 0 0 0 0 0 0 0 0 0 0 0 0 0 0
0 0 0 0 0 0 0 0 0 0 0 0 0 0 0 0 0 0 0 0 0 0 0 0 0 0 0 0 0 0 0 0 0 0 0 0 0 0 0 0 0 0 0
0 0 0 0 0 0 0 0 0 0 0 0 0 0 0 0 0 0 0 0 0 0 0 0 0 0 0 0 0 0 0 0 0 0 0 0 0 0 0 0 0 0 0
0 0 0 0 0 0 0 0 0 0 0 0 0 0 0 0 0 0 0 0 0 0 0 0 0 0 0 0 0 0 0 0 0 0 0 0 0 0 0 0 0 0 0
0 0 0 0 0 0 0 0 0 0 0 0 0 0 0 0 0 0 0 0 0 0 0 0 0 0 0 0 0 0 0 0 0 0 0 0 0 0 0 0 0 0 0
0 0 0 0 0 0 0 0 0 0 0 0 0 0 0 0 0 0 0 0 0 0 0 0 0 0 0 0 0 0 0 0 0 0 0 0 0 0 0 0 0 0 0
0 0 0 0 0 0 0 0 0 0 0 0 0 0 0 0 0 0 0 0 0 0 0 0 0 0 0 0 0 0 0 0 0 0 0 0 0 0 0 0 0 0 0
0 0 0 0 0 0 0 0 0 0 0 0 0 0 0 0 0 0 0 0 0 0 0 0 0 0 0 0 0 0 0 0 0 0 0 0 0 0 0 0 0 0 0
0 0 0 0 0 0 0 0 0 0 0 0 0 0 0 0 0 0 0 0 0 0 0 0 0 0 0 0 0 0 0 0 0 0 0 0 0 0 0 0 0 0 0
0 0 0 0 0 0 0 0 0 0 0 0 0 0 0 0 0 0 0 0 0 0 0 0 0 0 0 0 0 0 0 0 0 0 0 0 0 0 0 0 0 0 0
0 0 0 0 0 0 0 0 0 0 0 0 0 0 0 0 0 0 0 0 0 0 0 0 0 0 0 0 0 0 0 0 0 0 0 0 0 0 0 0 0 0 0
0 0 0 0 0 0 0 0 0 0 0 0 0 0 0 0 0 0 0 0 0 0 0 0 0 0 0 0 0 0 0 0 0 0 0 0 0 0 0 0 0 0 0
0 0 0 0 0 0 0 0 0 0 0 0 0 0 0 0 0 0 0 0 0 0 0 0 0 0 0 0 0 0 0 0 0 0 0 0 0 0 0 0 0 0 0
0 0 0 0 0 0 0 0 0 0 0 0 0 0 0 0 0 0 0 0 0 0 0 0 0 0 0 0 0 0 0 0 0 0 0 0 0 0 0 0 0 0 0
0 0 0 0 0 0 0 0 0 0 0 0 0 0 0 0 0 0 0 0 0 0 0 0 0 0 0 0 0 0 0 0 0 0 0 0 0 0 0 0 0 0 0
0 0 0 0 0 0 0 0 0 0 0 0 0 0 0 0 0 0 0 0 0 0 0 0 0 0 0 0 0 0 0 0 0 0 0 0 0 0 0 0 0 0 0
Wind_Speed
7 9 18 18 17 17 16 16 15 15 15 14 14 14 15 15 15 15 14 15 14 14 15 15 15 15 15 15 15 15 16 17 17 17 17 17 17 17 16 16 14 10 17
12 11 19 19 18 17 17 17 16 15 15 14 14 14 14 14 14 14 14 14 14 14 15 15 15 15 14 14 14 14 15 16 16 16 16 14 15 16 16 15 15 10 15
14 12 16 19 19 18 18 17 16 16 15 15 14 14 14 14 14 14 13 14 14 14 14 14 14 14 13 13 13 14 15 15 15 15 14 7 8 14 14 14 14 14 14
15 11 13 19 19 19 18 18 17 16 15 15 14 14 14 14 14 13 13 14 14 13 14 13 13 13 13 13 13 14 14 15 15 13 7 6 5 12 13 13 13 13 12
13 10 14 20 20 19 19 18 17 17 16 15 14 14 14 13 13 13 13 13 13 13 13 12 12 12 12 12 12 13 13 14 14 10 6 6 5 10 11 11 11 11 11
12 10 14 20 20 19 19 19 18 17 16 15 14 14 14 13 13 13 13 12 12 12 12 12 11 11 11 11 11 11 12 13 10 5 5 5 4 8 10 10 10 9 10
13 10 13 20 20 20 19 19 18 17 16 16 15 14 14 13 13 12 12 12 12 11 11 11 10 10 10 9 9 10 11 11 6 4 4 4 4 8 9 9 8 8 8
15 12 12 20 20 20 20 19 18 17 17 16 15 15 14 14 13 12 12 11 11 10 10 10 9 9 8 8 8 8 9 8 6 4 3 3 5 8 8 8 8 8 8
14 12 10 11 14 18 19 19 19 18 17 16 16 15 14 14 13 12 12 11 10 9 9 9 8 8 7 7 6 6 7 7 4 1 1 1 5 7 8 7 7 7 7
11 11 9 9 9 10 12 17 18 18 17 17 16 14 14 13 12 12 10 10 9 9 8 7 6 6 5 4 4 4 5 5 2 1 0 1 5 7 7 7 7 7 7
12 10 10 10 9 9 9 13 14 15 16 15 13 14 11 5 5 7 8 10 9 8 7 6 5 4 2 2 2 3 4 1 1 1 1 1 4 6 7 7 7 8 8
17 15 12 12 11 10 9 8 7 7 8 7 6 8 5 5 4 6 9 9 9 7 6 5 4 2 1 1 3 3 1 0 1 1 2 1 3 6 8 7 7 7 8
18 17 15 13 12 11 7 7 5 5 5 6 8 7 6 5 4 3 3 4 3 3 1 1 1 1 0 1 1 1 1 0 1 1 2 2 2 6 7 7 7 7 8
16 17 16 15 13 11 9 7 7 6 6 6 7 8 6 4 4 4 3 3 2 1 2 1 1 1 1 2 1 1 1 0 1 1 2 2 2 5 7 7 7 7 8
17 17 17 16 15 13 10 8 9 8 8 7 7 7 7 6 5 5 3 3 3 2 2 2 2 2 1 1 1 0 0 1 0 0 1 0 2 4 5 6 7 8 9
17 18 17 18 17 15 12 10 9 8 8 8 7 8 9 6 6 5 4 4 3 3 3 3 3 2 1 0 0 0 0 1 0 0 1 1 2 4 5 6 7 8 9
19 19 19 19 17 17 15 12 10 9 9 8 8 9 9 8 7 6 5 4 4 4 4 2 2 1 1 0 1 1 1 1 1 1 1 1 1 3 5 6 7 8 8
16 17 19 18 18 18 15 13 10 9 9 8 8 8 10 9 9 7 5 5 5 4 3 3 2 1 1 1 0 1 1 1 1 1 1 2 1 1 2 4 5 7 8
18 19 19 19 20 19 16 13 11 10 10 9 8 8 9 10 9 7 6 5 5 4 3 3 2 2 1 0 1 1 1 1 0 1 2 2 2 2 1 1 3 5 7
17 18 20 19 19 17 13 10 8 9 9 9 9 9 10 9 10 8 6 6 6 4 3 3 2 2 1 1 0 2 2 2 1 1 2 1 1 2 1 1 2 3 6
15 17 19 19 18 16 14 13 13 12 10 9 9 11 12 10 10 9 6 6 6 5 5 5 3 3 1 1 2 3 3 3 2 2 1 1 1 1 1 1 1 1 2
17 19 20 21 20 20 16 14 11 10 8 8 8 10 12 12 11 9 8 7 6 5 5 5 4 3 1 2 3 2 2 3 3 2 2 1 1 1 1 1 1 1 1
16 19 19 21 20 20 16 10 7 5 4 6 9 10 10 12 12 10 10 8 7 6 6 6 5 6 3 1 2 4 3 3 2 3 2 1 1 1 1 1 1 1 0
17 17 18 20 19 19 17 15 17 13 11 10 10 8 9 11 12 11 10 9 8 6 6 6 5 4 5 3 1 1 2 4 3 1 3 2 2 1 1 1 1 1 0
14 15 16 17 18 18 19 19 19 12 10 6 7 10 10 10 11 11 11 9 9 7 7 7 6 5 4 4 4 3 2 1 2 3 2 3 3 2 2 2 2 1 1
10 11 13 16 17 18 19 19 19 17 13 12 11 12 10 7 8 10 10 9 9 7 8 7 7 7 5 5 4 4 4 3 3 3 3 2 3 3 3 2 1 1 1
Wind_Direction
167 173 164 157 153 146 142 138 132 125 119 115 111 108 107 105 102 98 93 91 88 86 85 82 80 79 78 77 76 74 72 70 67 66 66 66 66 65 63 61 56 47 53
155 167 161 158 154 148 143 137 131 128 125 119 115 110 108 107 103 101 98 95 93 91 88 86 84 82 82 81 81 79 77 76 72 68 63 58 64 65 62 59 58 55 54
150 161 159 158 154 148 143 138 134 130 128 124 118 114 111 110 108 105 102 99 95 92 90 88 86 86 86 85 82 79 78 79 76 70 58 34 47 64 63 61 58 56 54
152 156 157 157 153 148 144 141 137 134 130 127 123 119 116 113 112 110 105 101 99 95 93 91 90 90 89 88 84 79 79 81 78 68 46 29 27 63 62 61 59 57 54
150 152 160 157 154 150 148 145 141 138 135 132 129 125 122 120 116 114 110 107 103 100 97 95 93 92 91 90 86 80 80 83 79 63 43 29 17 62 62 59 57 55 54
149 152 162 159 157 154 151 148 145 143 141 138 135 131 127 124 120 118 115 112 110 106 103 100 97 95 94 91 85 81 82 84 76 57 42 23 9 56 59 57 54 51 49
151 155 164 162 160 157 155 152 150 148 146 143 140 136 133 129 126 123 120 119 115 111 108 105 101 98 96 93 87 82 82 84 77 63 46 18 18 50 51 48 45 43 42
155 158 164 167 163 161 159 157 155 153 150 148 144 141 139 136 133 130 127 125 121 117 112 107 103 100 97 94 88 79 76 78 77 68 51 9 35 42 41 37 33 30 28
156 159 163 166 165 165 163 161 159 157 155 153 150 146 144 143 142 138 134 130 125 120 115 110 105 100 96 91 84 73 67 75 85 88 59 351 32 31 29 25 18 14 13
158 162 163 161 163 164 164 164 162 161 160 157 154 150 150 150 147 144 140 139 135 131 127 120 113 105 95 86 73 56 51 68 76 91 66 335 27 18 16 12 6 0 359
167 170 167 163 163 160 161 167 164 164 163 158 155 153 148 135 132 139 149 151 146 143 139 133 129 119 94 40 7 16 41 61 99 164 219 304 16 7 4 3 0 356 354
177 178 173 169 165 162 167 164 163 161 159 152 151 149 140 139 148 154 168 164 159 157 155 156 158 132 67 353 330 351 22 71 152 202 227 243 2 1 1 1 1 358 356
177 177 177 174 170 168 167 162 162 156 154 154 156 152 148 147 153 155 159 166 163 161 154 170 87 59 247 253 280 293 252 183 186 232 242 247 353 2 4 5 7 7 4
177 182 178 176 174 173 168 168 165 163 164 166 167 161 155 156 161 165 170 173 173 173 183 204 223 249 246 248 244 257 266 228 205 230 255 251 2 10 12 15 19 19 20
182 184 181 179 179 176 172 173 173 173 173 172 171 170 165 165 171 174 178 179 185 183 185 197 212 223 242 255 237 196 340 353 283 184 266 220 58 32 29 31 30 30 27
188 187 183 183 182 178 179 178 177 177 175 174 177 177 173 172 173 174 178 180 187 188 190 190 191 197 213 202 359 42 19 9 36 106 126 85 91 66 51 41 32 28 21
192 187 186 186 183 182 182 181 179 179 177 180 181 179 178 177 176 175 175 181 188 183 177 169 173 150 138 94 14 353 10 8 48 101 119 115 93 85 68 47 34 26 17
193 189 188 186 185 185 183 182 180 181 180 182 181 182 182 181 177 173 174 183 180 170 163 160 151 126 105 79 349 334 359 4 58 127 129 133 126 96 66 58 40 24 12
196 191 188 187 186 187 184 181 180 179 183 183 182 184 186 183 178 173 176 180 171 163 165 164 139 141 148 171 269 334 355 350 51 116 129 140 148 148 137 40 34 18 8
199 193 190 188 186 184 180 176 176 181 185 184 185 187 184 184 179 173 174 177 166 159 164 159 147 136 145 167 35 19 358 344 57 110 131 128 147 147 122 65 31 4 6
197 193 190 188 185 180 182 182 184 188 187 187 187 187 186 183 180 176 174 173 169 171 175 167 148 143 139 118 72 17 359 13 46 52 65 75 67 79 84 83 70 29 355
195 193 191 189 186 185 188 188 188 180 181 183 182 187 187 184 181 180 176 176 173 168 169 168 153 143 142 129 124 92 15 350 353 14 22 56 47 41 48 55 60 51 17
196 194 192 191 188 188 183 173 157 148 151 174 188 190 189 185 183 180 180 175 175 172 176 177 166 156 159 158 141 142 149 213 288 327 356 14 1 23 351 336 11 4 17
200 195 193 190 188 187 179 177 177 183 187 189 185 184 183 185 183 181 179 177 177 176 175 178 171 160 150 159 147 125 150 156 156 289 316 326 330 315 300 308 324 317 340
198 193 192 188 188 185 184 184 185 189 187 169 168 176 183 185 184 183 181 179 178 178 177 174 167 164 158 158 161 152 130 100 131 155 253 304 321 294 274 275 275 284 319
195 191 188 186 188 186 186 186 188 187 176 169 175 182 185 184 186 186 182 181 180 177 178 177 172 169 169 161 162 160 160 161 178 168 201 246 280 291 295 291 270 255 276